sat.trackr.live / text

‹ back to catalog

STARLINK-32855

NORAD 62813 · 2025-018H

PAYLOAD ACTIVE UNKNOWN

§ Identity

Operator
Country
US
Launch date
2025-01-24
Launch site
AFWTR
Launch vehicle
Mass (kg)
RCS (m²)

Purposes: comms

External: N2YO · Heavens-Above · Gunter

§ Orbital elements

Epoch: 2026-09-21T22:49:27.899904Z

Period
93.85 min
Inclination
53.1570°
Eccentricity
0.0001096
Mean motion
15.34388749 rev/d
Perigee alt
462.0 km
Apogee alt
463.5 km
Semi-major
6,840.9 km
B*
1.3149e-4
RAAN
114.6667°
Arg perigee
99.9277°
Mean anomaly
260.1850°
Rev number
9,326

§ Raw data

STARLINK-328551 62813U 25018H   26264.95101736  .00004067  00000+0  13149-3 0  99952 62813  53.1570 114.6667 0001096  99.9277 260.1850 15.34388749 93267

JSON: /api/v1/satellites/62813 · /tle

For live sub-satellite position, see the globe view (requires WebGL).

§ Visibility from observer

Set your observer location to see the next 7 days of passes ≥ 10°. The values pass through the URL so the page stays shareable.

No JS? Fill the form by hand. The geolocation button needs JavaScript.